DECAYED

OBJECT B, 53949 (Decayed)

Orbit data source: Space-Track

You're viewing an Uncataloged Satellite

Recently launched and/or uncataloged satellites may have evolving metadata. Metadata may include but not limited to: Owner, Maufacturer, Bus, Motor, and Mission.

OBJECT B, 53949 was a satellite owned by SAST (CN) in LEO that was launched on Mon, 26 Sep 2022 UTC via a CHANG ZHENG 6 launch vehicle from the Taiyaun Space Center, China (TSC). Unknown objects in Earth's orbit typically refer to objects detected orbiting the Earth but have not yet been identified or cataloged. These objects could be anything from previously untracked satellites, spent rocket stages, debris from satellite collisions, or even natural meteoroids temporarily captured by Earth's gravity. This object's orbit decayed before it could be identified.

Loading next visibility...
Identifier
53949, 2022-121B
Orbit
Decayed
Country
Flag of CNCN / PRC
Related business
Manufacturer
SAST
Mission
Decayed Defense Technology
Bus & Motor
Unknown
Mass
~100 kg wet, 100 kg dry
Launch date (UTC)
2022-09-26 (3 years ago)
Launch vehicle
CHANG ZHENG 6
Launch site
Taiyaun Space Center, China (TSC)
Object type
Unknown
Shape & HBR
Box + 2 Pan, 1.0 m
Radar Cross Section
0.833 m², Large (>1 m²)

Expand to show TLE details & history
Last TLE update: 10 months ago

TLE from 10 months ago
0 OBJECT B
1 53949U 22121B   24296.04981856  .24663958  28179-5  92037-3 0  9991
2 53949  97.3451 328.4090 0007742 196.8257 193.5407 16.43597609115810
Epoch: 2024-10-22T01:11Z
TLE epoch observation values (Epoch: 2024-10-22T01:11:44.323Z)
Latitude
30.12806°
Longitude
-84.75877°
Altitude
165.206 km
Speed
7.807 km/s
True Right ascension
21h 36m 34s
True Declination
29° 57' 56"
Sunlit
Object was in full shadow at epoch
Visualization orbit readout
Latitude
Unknown
Longitude
Unknown
Altitude
Unknown
Speed
Unknown
Apparent Right ascension
Unknown
Apparent Declination
Unknown
Sunlit
N/A
Visualization observer readout
Local Sidereal Time
11:54:35
Azimuth
Unknown
Elevation
Unknown
Doppler factor
Unknown
Orbital elements
Apogee altitude
158.107 km
Perigee altitude
147.994 km
Semi-major axis
6,531.187 km
Eccentricity
0.00077
Inclination
97.3451°
RAAN
328.409°
Arg. of periapsis
196.8257°
True anomaly
193.51995°
Mean anomaly
193.5407°
Eccentric anomaly
193.53032°
Mean motion
4.11202 °/min
Orbital period
87.55 mins
BSTAR
0.00092037
Loading maneuver chart data...
Computing Atmospheric mass density...
Loading historical data...
Loading historical data...
Loading historical data...
Loading historical data...
Loading historical data...
Loading historical data...
Loading historical data...
Other satellites on launch #121 in the year 2022 (2022-09-26 UTC)

Documentation

Showing up to 5 results
|